CAPE
0 0 0 0 0 0 0 0 0 0 0 0 0 0 0 0 0 0 0 0 0 0 0 1 3 6 21 55 245 442 326 514 546 786 694 341 225 257 192 654 1205 1419 2299 2210
0 0 0 0 0 0 0 0 0 0 0 0 0 0 0 0 0 0 0 0 0 0 0 9 13 40 163 304 427 495 486 511 378 647 629 1020 430 144 319 511 598 1518 1865 2247
0 0 0 0 0 0 0 0 0 0 0 0 0 0 0 0 0 0 0 0 0 0 0 0 0 15 53 168 529 634 704 598 316 746 488 887 817 741 599 861 1300 1945 1209 477
0 0 0 0 0 0 0 0 0 0 0 0 0 0 5 0 0 0 0 0 5 16 21 0 0 19 37 41 284 615 905 616 319 714 477 800 1521 1084 844 1094 565 2451 1269 64
0 0 0 0 0 0 0 0 0 0 0 0 0 3 18 2 3 7 26 42 7 1 35 4 0 7 36 59 143 432 653 702 586 497 633 764 1101 1410 1643 1899 1613 1613 508 3
0 0 0 0 0 0 0 0 0 0 0 0 1 0 0 0 14 3 13 8 6 25 74 46 37 69 61 125 232 195 612 926 468 484 469 562 771 1037 1401 1596 1598 656 516 164
0 0 0 0 0 0 0 0 0 0 0 0 0 0 31 0 0 0 0 0 12 83 105 88 31 41 122 212 320 163 233 449 494 322 296 429 163 359 880 1285 1160 963 529 285
0 0 0 0 0 0 0 0 0 0 0 0 0 0 0 0 0 0 0 0 1 9 1 0 79 54 93 153 378 122 74 3 153 426 331 297 399 123 315 828 1122 968 993 276
0 0 0 0 0 0 0 0 0 0 0 0 0 0 15 0 0 0 11 8 18 49 6 0 37 69 172 133 134 0 4 127 489 272 441 357 194 203 286 366 772 654 514 541
0 0 0 0 0 0 0 0 0 1 15 0 0 0 4 0 0 3 13 23 44 38 44 169 203 13 43 246 333 291 137 345 485 525 396 256 252 107 422 267 430 541 742 379
0 0 0 0 0 0 0 0 0 0 0 0 0 0 1 43 53 66 75 7 47 99 47 11 23 0 0 0 197 398 372 258 352 305 384 427 156 178 309 127 203 210 68 4
0 0 0 0 0 0 0 0 0 39 3 39 55 5 12 20 39 48 40 29 3 27 0 0 8 9 0 18 41 121 251 122 161 210 137 273 339 228 311 235 73 0 1 0
0 0 0 0 0 0 0 2 0 7 59 5 42 5 37 41 67 127 73 0 0 10 11 47 146 211 50 46 63 6 58 11 37 56 38 23 97 358 145 173 0 0 3 4
0 0 0 0 0 0 0 0 0 1 67 2 13 11 42 100 114 67 15 2 0 1 31 52 44 44 14 30 59 33 6 0 0 0 10 23 25 219 244 29 1 1 3 4
0 0 0 0 0 0 0 0 0 0 1 29 5 24 95 49 25 28 2 7 1 0 8 26 31 41 46 0 28 6 19 9 11 19 13 14 20 90 14 5 2 5 6 7
0 12 0 0 0 0 0 0 0 0 0 13 27 30 73 112 16 13 2 0 4 5 3 4 2 4 24 34 33 7 1 32 40 34 17 11 21 30 4 2 4 6 5 5
7 24 9 0 0 0 0 0 0 0 0 8 38 49 59 23 0 2 6 15 4 9 14 11 20 23 59 37 48 29 22 10 36 49 33 31 55 3 4 2 4 3 4 2
0 8 18 29 6 1 0 0 0 0 3 23 18 87 32 12 1 4 15 6 3 0 26 13 30 30 35 18 10 18 34 41 38 43 20 49 3 2 3 4 3 2 2 2
4 23 56 40 45 2 0 2 40 29 2 62 30 3 1 7 4 0 46 15 11 21 35 31 27 50 42 23 18 13 12 14 14 29 36 3 2 3 4 3 3 3 1 1
19 19 14 1 46 6 0 6 15 17 26 48 34 17 25 24 58 0 24 26 16 46 43 55 63 44 37 58 35 37 20 32 31 38 3 4 4 3 4 2 2 0 0 0
41 30 45 75 62 19 31 19 11 59 58 18 6 0 3 31 56 58 60 31 22 30 67 49 34 28 45 43 39 19 24 19 32 2 3 5 4 3 1 1 0 0 0 16
30 92 103 116 60 62 20 14 34 61 50 38 19 14 20 44 10 24 30 17 15 51 36 13 31 31 38 36 42 31 17 21 1 3 5 5 2 3 1 0 0 0 27 55
61 67 180 69 42 211 149 121 158 270 52 35 30 32 17 8 28 35 31 14 40 28 19 16 16 1 18 26 2 1 1 1 4 4 4 1 0 0 0 4 20 66 75 59
10 36 119 50 25 56 52 58 99 65 57 73 46 2 5 25 21 31 36 26 23 15 4 1 5 7 10 3 0 2 3 3 3 3 1 0 2 1 0 15 0 0 36 28
24 37 19 45 29 90 46 93 96 36 48 36 1 2 9 12 19 14 12 18 21 3 3 7 8 6 4 1 8 2 3 2 3 1 0 0 1 2 0 0 0 0 0 0
43 56 165 107 88 88 60 86 97 67 1 0 0 0 0 13 8 10 16 27 7 4 5 3 4 4 2 3 4 5 3 2 0 0 0 22 31 14 1 0 0 0 0 0
CIN
-0 -0 -0 -0 -0 -0 -0 -0 -0 -0 -0 -0 -0 -0 -0 -0 -0 -0 -0 -0 -0 -0 -0 -1 -2 -1 -3 -2 -8 -12 -25 -14 -9 -0 -13 -88 -131 -122 -124 -66 -68 -44 -30 -36
-0 -0 -0 -0 -0 -0 -0 -0 -0 -0 -0 -0 -0 -0 -0 -0 -0 -0 -0 -0 -0 -0 -0 -2 -1 -1 -2 -4 -4 -11 -18 -34 -20 -0 -19 -6 -100 -210 -175 -90 -92 -53 -40 -61
-0 -0 -0 -0 -0 -0 -0 -0 -0 -0 -0 -0 -0 -0 -0 -0 -0 -0 -0 -0 -0 -0 -0 -0 -0 -2 -3 -6 -5 -10 -9 -28 -40 -2 -24 -17 -45 -107 -131 -73 -67 -72 -191 -189
-0 -0 -0 -0 -0 -0 -0 -0 -0 -0 -0 -0 -0 -0 -6 -0 -0 -0 -0 -0 -11 -2 -4 -2 -1 -3 -6 -13 -6 -18 -5 -15 -56 -7 -13 -20 -1 -27 -74 -62 -61 -109 -200 -430
-0 -0 -0 -0 -0 -0 -0 -0 -0 -0 -0 -0 -0 -1 -2 -3 -10 -3 -5 -3 -12 -22 -5 -4 -10 -4 -1 -11 -35 -43 -22 -11 -30 -35 -4 -5 -7 -0 -10 -28 -62 -105 -297 -311
-0 -0 -0 -0 -0 -0 -0 -0 -0 -0 -0 -0 -1 -0 -0 -0 -15 -12 -27 -29 -27 -7 -5 -8 -28 -26 -11 -34 -48 -31 -12 -5 -16 -35 -5 -16 -24 -2 -8 -39 -25 -181 -143 -291
-0 -0 -0 -0 -0 -0 -0 -0 -0 -0 -0 -0 -0 -0 -48 -0 -0 -0 -0 -0 -71 -44 -17 -6 -33 -25 -11 -62 -43 -61 -54 -11 -13 -25 -10 -10 -92 -62 -4 -0 -21 -34 -107 -3
-0 -0 -0 -0 -0 -0 -0 -0 -0 -0 -0 -0 -0 -0 -0 -0 -0 -0 -0 -0 -120 -227 -295 -2 -119 -144 -0 -23 -17 -55 -124 -130 -34 -4 -12 -25 -21 -107 -83 -12 -0 -0 -1 -63
-0 -0 -0 -0 -0 -0 -0 -0 -0 -0 -0 -0 -0 -0 -2 -0 -0 -0 -20 -100 -141 -135 -284 -0 -203 -106 -0 -4 -64 -10 -43 -123 -9 -11 -4 -3 -49 -89 -90 -69 -2 -1 -5 -28
-0 -0 -0 -0 -0 -0 -0 -0 -0 -0 -0 -0 -0 -0 -0 -16 -0 -2 -1 -33 -33 -80 -126 -64 -87 -343 -235 -19 -8 -59 -104 -78 -8 -2 -7 -3 -6 -75 -37 -121 -2 -3 -1 -118
-0 -0 -0 -0 -0 -0 -0 -0 -0 -0 -0 -0 -0 -0 -3 -1 -3 -18 -26 -15 -47 -60 -144 -98 -230 -0 -0 -0 -1 -9 -7 -7 -7 -15 -3 -9 -34 -26 -18 -90 -10 -0 -21 -53
-0 -0 -0 -0 -0 -0 -0 -0 -0 -1 -1 -0 -1 -3 -0 -1 -2 -1 -1 -11 -26 -62 -12 -81 -192 -96 -0 -22 -34 -2 -4 -6 -7 -7 -18 -2 -4 -4 -0 -2 -11 -0 -0 -0
-0 -0 -0 -0 -0 -0 -0 -0 -0 -1 -1 -1 -0 -0 -1 -0 -16 -4 -13 -0 -0 -52 -38 -27 -19 -27 -14 -8 -31 -13 -40 -6 -60 -53 -87 -111 -37 -2 -17 -1 -0 -0 -0 -0
-0 -0 -0 -0 -0 -0 -0 -0 -0 -0 -5 -0 -0 -0 -1 -16 -7 -13 -21 -43 -0 -9 -6 -4 -8 -7 -20 -31 -0 -0 -5 -0 -0 -0 -0 -0 -13 -4 -9 -10 -0 -0 -0 -0
-0 -0 -0 -0 -0 -0 -0 -0 -0 -0 -0 -1 -0 -0 -28 -11 -27 -35 -9 -0 -0 -0 -12 -5 -13 -0 -0 -3 -1 -2 -0 -0 -0 -0 -0 -2 -10 -39 -20 -0 -0 -0 -0 -0
-0 -1 -0 -0 -0 -0 -0 -0 -0 -0 -0 -0 -0 -0 -2 -9 -1 -1 -4 -0 -0 -0 -6 -1 -2 -14 -5 -1 -6 -6 -0 -0 -0 -0 -1 -2 -6 -19 -0 -0 -0 -0 -0 -0
-0 -0 -0 -0 -0 -0 -0 -0 -0 -0 -0 -0 -0 -1 -2 -8 -0 -0 -0 -2 -9 -1 -1 -0 -0 -0 -0 -2 -0 -0 -0 -7 -0 -0 -0 -0 -3 -0 -0 -0 -0 -0 -0 -0
-0 -11 -0 -0 -0 -0 -0 -0 -0 -0 -0 -0 -1 -2 -8 -13 -0 -0 -3 -14 -13 -21 -0 -0 -1 -1 -2 -4 -5 -0 -0 -0 -1 -0 -0 -0 -0 -0 -0 -0 -0 -0 -0 -0
-0 -2 -0 -0 -0 -0 -0 -0 -0 -0 -0 -2 -3 -1 -11 -6 -1 -0 -13 -13 -17 -0 -0 -0 -4 -0 -2 -4 -4 -5 -4 -3 -1 -0 -0 -0 -0 -0 -0 -0 -0 -0 -0 -0
-4 -6 -12 -4 -0 -0 -0 -3 -0 -1 -0 -3 -0 -0 -0 -0 -0 -0 -1 -0 -8 -0 -0 -0 -0 -0 -5 -4 -1 -0 -0 -0 -0 -0 -0 -0 -0 -0 -0 -0 -0 -0 -0 -0
-3 -0 -0 -0 -0 -0 -1 -1 -13 -0 -0 -2 -8 -0 -5 -0 -2 -2 -0 -0 -0 -0 -0 -0 -0 -1 -1 -1 -2 -1 -1 -0 -1 -0 -0 -0 -0 -0 -0 -0 -0 -0 -0 -0
-0 -1 -0 -1 -1 -1 -1 -2 -10 -2 -4 -0 -0 -0 -5 -0 -22 -13 -4 -1 -3 -0 -0 -2 -0 -0 -1 -2 -1 -0 -0 -1 -0 -0 -0 -0 -0 -0 -0 -0 -0 -0 -0 -1
-1 -0 -1 -0 -0 -6 -2 -1 -1 -1 -0 -1 -10 -2 -2 -1 -0 -0 -0 -0 -0 -0 -0 -0 -0 -2 -0 -0 -2 -1 -1 -0 -0 -0 -0 -0 -0 -0 -0 -0 -2 -1 -5 -4
-0 -1 -0 -2 -1 -0 -0 -1 -0 -13 -27 -0 -1 -7 -13 -0 -0 -0 -0 -0 -0 -0 -0 -0 -0 -0 -0 -0 -0 -2 -0 -0 -0 -0 -0 -0 -0 -0 -0 -22 -0 -0 -6 -2
-1 -1 -0 -0 -0 -0 -0 -2 -1 -5 -8 -6 -20 -13 -0 -1 -0 -0 -0 -0 -0 -0 -0 -0 -0 -0 -0 -1 -0 -0 -0 -0 -0 -0 -0 -0 -0 -9 -0 -0 -0 -0 -0 -0
-1 -0 -0 -0 -0 -1 -0 -3 -3 -2 -5 -0 -0 -0 -0 -1 -0 -0 -0 -0 -0 -0 -0 -0 -0 -0 -0 -0 -0 -0 -0 -0 -0 -0 -0 -0 -1 -6 -21 -0 -0 -0 -0 -0
Wind_Speed
4 10 1 12 6 8 11 11 13 14 7 12 12 17 20 19 18 18 3 7 5 3 3 5 6 4 5 3 4 6 9 11 12 10 10 9 9 9 8 8 9 8 5 10
10 10 11 5 6 8 11 14 13 14 15 16 19 21 22 20 5 10 9 4 0 1 2 5 5 6 5 6 3 5 7 10 11 10 11 9 8 10 11 10 8 9 8 2
9 9 6 4 8 11 12 11 13 16 18 18 20 18 19 18 10 10 7 6 3 6 3 5 7 9 9 7 5 6 6 8 10 14 11 12 7 8 8 9 5 4 7 8
8 9 2 7 10 9 10 16 15 17 17 13 16 16 20 2 8 13 12 12 12 3 4 1 6 6 8 9 6 8 7 9 10 15 14 16 13 9 9 10 9 4 3 9
2 2 7 9 9 8 12 13 15 17 19 20 19 11 6 6 12 3 7 12 7 2 3 7 7 8 10 12 8 5 7 8 10 12 14 13 14 13 11 10 11 7 6 6
13 7 3 5 10 10 9 15 16 20 17 12 14 18 11 14 18 16 14 13 14 12 10 10 11 10 12 15 17 16 9 8 11 13 16 17 16 16 14 15 10 4 6 7
6 10 11 1 8 11 13 14 10 6 9 11 23 13 17 23 22 22 19 18 20 21 14 15 17 14 13 14 13 13 18 15 11 12 14 16 17 17 15 14 10 9 8 4
7 4 4 7 4 10 13 10 7 15 13 18 16 11 5 14 16 19 19 21 20 18 20 23 23 21 17 12 13 12 14 13 17 9 11 12 14 9 10 13 10 9 7 6
7 6 13 10 9 8 10 10 12 11 14 16 10 13 7 15 16 9 14 9 8 7 7 8 8 9 16 8 10 8 9 7 10 14 9 9 11 12 12 16 12 6 6 5
7 11 12 1 1 12 15 11 8 7 10 16 13 17 11 22 15 8 12 16 15 14 13 15 15 14 14 17 4 3 3 5 10 8 7 9 10 11 11 13 16 14 10 12
10 8 11 16 15 14 11 10 13 11 8 11 16 9 18 19 13 16 14 12 11 10 13 13 15 13 14 15 11 6 4 8 8 9 12 7 9 12 11 9 12 14 15 13
8 5 9 18 20 10 4 10 9 7 10 10 11 14 15 13 13 2 4 13 8 10 13 13 6 8 7 18 10 12 9 11 15 6 8 11 6 8 9 9 8 14 14 11
9 4 7 10 5 6 6 9 15 14 10 12 14 12 14 12 13 11 15 14 11 10 9 8 9 9 9 10 11 12 11 10 12 14 13 11 13 6 8 7 7 10 9 9
3 4 9 9 15 18 20 20 18 14 7 14 15 20 19 15 14 12 12 10 10 10 7 11 11 13 13 12 14 12 12 14 13 13 12 12 10 13 6 7 10 8 6 6
3 6 10 16 19 20 22 21 19 18 16 15 17 18 8 9 6 9 9 13 17 17 16 11 11 14 14 12 13 14 14 14 12 13 13 13 11 11 9 8 9 6 5 6
4 4 11 19 19 20 18 19 22 21 19 16 13 14 15 13 6 10 14 16 18 16 18 17 16 16 14 13 13 13 13 14 12 11 12 13 12 10 8 9 7 6 7 7
7 4 7 8 13 18 13 6 11 12 13 11 11 14 16 14 15 15 15 15 15 17 16 18 16 14 12 11 11 12 13 13 11 12 11 13 11 8 10 8 7 7 6 7
3 2 5 9 13 5 8 23 13 6 8 11 14 12 12 12 14 16 18 13 14 18 16 15 13 12 10 9 10 13 13 13 10 10 11 11 10 9 9 9 8 7 6 6
11 6 2 3 5 16 13 9 9 10 11 13 16 18 17 16 18 18 10 14 16 17 14 10 11 12 8 6 8 10 9 10 9 8 9 9 8 9 9 9 7 6 5 5
12 10 6 6 6 6 13 14 6 7 10 9 14 17 19 19 12 11 16 17 15 16 12 12 14 13 13 6 7 10 8 9 8 7 8 7 8 9 9 8 6 3 3 4
9 7 11 10 9 8 5 11 13 9 8 15 16 17 17 15 10 16 18 17 18 16 16 14 14 14 12 10 6 6 7 7 6 8 9 8 9 9 7 5 2 2 3 4
10 7 7 8 8 8 3 12 8 9 12 15 16 14 14 15 14 16 15 18 16 17 13 12 12 10 9 7 4 5 6 4 7 9 10 9 7 6 4 4 4 2 3 6
10 8 6 5 7 15 16 9 6 12 11 12 10 13 14 18 18 18 18 17 15 14 12 10 9 11 11 5 5 3 5 9 10 10 10 8 6 5 2 2 1 2 3 6
14 13 7 11 12 14 14 16 16 11 13 17 14 13 12 16 19 18 16 16 12 12 10 10 10 9 8 6 5 4 10 10 11 11 9 6 6 3 4 3 6 6 7 7
11 10 13 15 15 15 16 12 12 12 11 12 12 11 15 15 18 15 14 13 12 10 11 8 7 5 6 5 1 11 11 12 11 10 8 5 1 5 9 9 7 8 8 9
10 10 7 11 14 12 16 15 15 13 9 8 11 15 17 16 15 13 12 12 11 12 10 7 6 4 4 2 11 11 11 13 12 10 5 5 6 9 9 9 9 13 12 14
Wind_Direction
211 248 58 39 17 332 319 320 308 294 346 327 303 301 302 298 286 272 308 104 91 92 34 57 26 10 19 36 39 30 10 354 339 338 329 320 303 293 254 264 225 252 237 190
250 226 81 17 315 298 302 301 306 328 343 328 307 296 285 280 6 69 65 39 83 169 11 17 356 353 17 352 49 63 35 10 341 341 324 291 279 282 286 297 237 225 220 111
311 83 82 307 296 304 305 335 338 315 317 305 295 308 308 297 127 125 148 150 227 219 86 21 14 1 359 347 346 42 54 33 4 342 336 329 304 283 267 271 264 196 151 152
290 73 355 288 290 342 318 354 331 319 314 305 305 291 285 23 172 203 183 187 212 112 133 215 7 352 344 328 335 49 32 28 16 351 343 341 321 292 291 294 276 163 158 42
52 324 326 325 330 359 307 340 309 287 283 283 276 264 59 204 318 322 197 209 127 286 249 43 300 3 345 360 12 59 17 35 22 6 343 350 351 342 321 322 351 69 90 115
273 314 260 319 338 289 267 277 295 287 273 274 1 356 326 335 352 344 22 18 17 19 36 11 2 356 20 18 18 356 12 18 23 22 345 356 357 352 342 346 351 358 332 266
300 241 100 54 308 336 340 325 310 306 313 304 357 337 36 28 30 22 9 12 7 7 3 356 346 10 351 14 13 9 0 357 19 21 348 350 2 0 348 352 351 18 18 306
289 254 163 108 300 303 295 295 307 310 317 309 307 291 90 50 31 32 26 22 21 10 6 0 4 344 328 359 37 24 16 2 311 24 2 348 357 1 355 350 6 14 15 37
322 278 352 304 303 1 316 309 324 316 297 293 296 307 7 47 6 40 62 33 14 19 12 351 335 316 310 358 63 62 29 317 332 351 355 357 360 352 356 358 352 11 11 0
331 304 289 347 335 268 238 251 285 279 281 286 292 317 312 360 5 14 354 12 17 13 351 342 340 2 14 346 58 117 254 267 347 356 349 350 354 347 360 18 351 347 8 5
300 268 282 308 281 304 317 300 311 324 315 307 304 298 343 315 12 29 9 353 31 11 357 344 356 6 13 308 324 338 355 330 332 347 337 8 349 349 358 21 355 355 1 4
39 315 290 285 289 291 326 300 301 277 279 276 288 286 297 323 34 15 310 48 41 33 20 3 345 348 283 272 355 329 346 338 342 325 340 340 350 351 348 354 15 27 346 357
13 282 314 299 143 146 241 294 313 298 304 289 289 291 293 327 3 1 33 24 24 358 356 319 303 278 291 333 351 347 348 342 338 347 346 345 334 347 334 7 39 41 352 355
122 261 256 267 301 310 299 298 298 292 278 279 274 295 297 21 9 357 41 15 349 331 335 326 339 350 345 340 345 348 358 342 340 335 337 328 324 315 352 37 50 43 355 357
201 272 299 295 302 297 288 283 280 279 282 286 291 289 37 2 336 0 348 350 347 339 324 360 355 330 326 348 344 348 347 334 327 331 324 316 312 322 73 62 54 38 24 24
235 259 292 293 286 280 314 312 294 278 270 280 313 320 351 32 358 339 355 341 334 340 343 333 332 333 323 331 333 343 329 323 332 321 311 303 307 68 70 65 64 52 41 40
300 302 310 282 323 328 296 331 337 323 316 326 319 338 11 4 356 341 336 343 348 330 332 327 328 326 327 343 344 333 320 318 324 309 315 307 340 80 73 76 67 55 46 50
223 73 271 292 310 255 292 325 299 296 308 347 327 11 357 336 328 326 313 9 343 332 325 329 323 319 316 327 328 316 321 313 321 310 317 339 94 89 91 81 68 54 47 46
205 150 277 271 275 279 287 0 339 339 325 14 15 350 335 329 322 314 2 350 337 330 328 323 318 310 301 270 286 294 304 305 315 327 22 54 74 89 85 80 69 56 58 51
166 173 156 251 276 272 310 1 32 319 287 9 338 329 324 328 313 310 337 328 316 332 325 313 305 304 303 292 261 278 298 306 312 28 60 65 82 87 84 77 64 44 81 80
201 199 230 238 254 258 329 12 334 283 336 334 326 340 331 318 303 306 327 326 331 317 315 319 319 316 304 304 300 300 286 311 29 86 92 88 83 84 84 81 70 27 60 65
289 255 241 224 240 280 50 357 343 326 306 316 319 317 304 316 332 320 320 326 314 317 326 332 324 315 334 335 322 352 344 44 99 92 92 89 86 85 81 100 110 101 58 83
285 279 288 265 270 321 318 335 279 305 313 319 323 314 323 320 316 326 321 304 320 323 328 327 338 328 327 35 9 314 289 115 98 94 94 91 89 76 75 110 121 158 122 78
298 300 258 268 277 297 303 295 307 351 314 307 316 337 319 321 321 314 316 317 319 324 327 326 313 311 318 318 290 268 112 105 103 106 105 96 78 23 343 351 49 41 57 61
269 281 290 293 300 299 298 315 331 323 317 322 353 316 314 317 312 315 314 312 319 323 313 309 304 302 295 294 347 108 109 113 107 106 107 108 124 102 74 51 38 65 42 45
320 310 290 282 298 307 303 301 282 321 2 353 332 318 316 315 318 319 313 312 322 303 303 287 283 281 294 341 106 106 113 113 115 130 141 153 115 98 94 87 74 46 63 53